�N����,����,�g�[���i�䏊�j���x,�g�[�����x,��g�[���i��Q���j���x,����
 2005/03/01, 0:00,17.9,51,14.8,13.5
 2005/03/01, 0:15,17.6,52,14.8,13
 2005/03/01, 0:30,17.4,53,14.6,12.5
 2005/03/01, 0:45,17.2,55,14.3,12.2
 2005/03/01, 1:00,17,56,14.1,12
 2005/03/01, 1:15,16.9,56,13.9,15.5
 2005/03/01, 1:30,16.7,56,13.9,15.2
 2005/03/01, 1:45,16.6,56,13.7,13.8
 2005/03/01, 2:00,16.4,56,13.4,12.9
 2005/03/01, 2:15,16.3,56,13.3,14.1
 2005/03/01, 2:30,16.2,56,13.3,16.8
 2005/03/01, 2:45,16,56,13.1,18.4
 2005/03/01, 3:00,15.9,57,12.9,19.2
 2005/03/01, 3:15,15.7,57,12.9,18
 2005/03/01, 3:30,15.7,56,12.8,18
 2005/03/01, 3:45,15.6,56,12.6,18.1
 2005/03/01, 4:00,15.5,56,12.6,19.2
 2005/03/01, 4:15,15.4,56,12.5,19.5
 2005/03/01, 4:30,15.2,56,12.5,19.6
 2005/03/01, 4:45,15.2,56,12.3,19.6
 2005/03/01, 5:00,15,56,12.2,19.7
 2005/03/01, 5:15,14.9,56,12.1,19.7
 2005/03/01, 5:30,14.9,56,12.1,19.2
 2005/03/01, 5:45,14.7,56,12.1,18.6
 2005/03/01, 6:00,14.7,55,11.9,18
 2005/03/01, 6:15,14.6,55,11.8,17.4
 2005/03/01, 6:30,14.5,55,11.7,17.4
 2005/03/01, 6:45,14.5,55,11.7,17.4
 2005/03/01, 7:00,14.5,54,12,17.6
 2005/03/01, 7:15,14.6,55,11.9,18.1
 2005/03/01, 7:30,14.6,54,12,18.6
 2005/03/01, 7:45,14.9,55,12.1,18.9
 2005/03/01, 8:00,15.2,54,12.1,19.2
 2005/03/01, 8:15,15.4,55,12.1,19.5
 2005/03/01, 8:30,15.2,56,12.2,19.5
 2005/03/01, 8:45,15,56,12.2,19.3
 2005/03/01, 9:00,14.9,55,12.2,20.6
 2005/03/01, 9:15,14.9,53,12.2,21
 2005/03/01, 9:30,14.9,53,12.2,21.4
 2005/03/01, 9:45,14.8,54,12.2,21.5
 2005/03/01,10:00,15,52,12.3,21.7
 2005/03/01,10:15,15.1,51,12.4,21.9
 2005/03/01,10:30,15.1,50,12.4,16.6
 2005/03/01,10:45,15.3,50,12.6,14.4
 2005/03/01,11:00,15.4,49,12.6,14.2
 2005/03/01,11:15,15.2,48,12.7,13.5
 2005/03/01,11:30,15.1,48,12.7,12.9
 2005/03/01,11:45,15.1,48,12.8,12.9
 2005/03/01,12:00,15.3,48,12.9,12.5
 2005/03/01,12:15,15.5,52,12.9,12.9
 2005/03/01,12:30,15.6,52,13.2,12.9
 2005/03/01,12:45,15.9,51,13.3,12.9
 2005/03/01,13:00,16.2,48,13.4,12.6
 2005/03/01,13:15,16.2,47,13.5,12
 2005/03/01,13:30,16.6,56,13.7,12.2
 2005/03/01,13:45,16.8,53,13.8,12.1
 2005/03/01,14:00,16.5,50,13.9,11.7
 2005/03/01,14:15,16.5,49,13.8,11.4
 2005/03/01,14:30,16.4,48,14,11.3
 2005/03/01,14:45,16.4,47,14.1,11.6
 2005/03/01,15:00,16.4,47,14.2,11.2
 2005/03/01,15:15,16.4,47,14.4,10.8
 2005/03/01,15:30,16.2,47,14.4,10.5
 2005/03/01,15:45,16.3,46,14.4,10.2
 2005/03/01,16:00,16.4,47,14.5,10.8
 2005/03/01,16:15,16.5,49,14.8,14.8
 2005/03/01,16:30,16.7,47,15,15.3
 2005/03/01,16:45,16.6,46,15.1,15.3
 2005/03/01,17:00,16.9,44,15.2,15.5
 2005/03/01,17:15,17.4,46,15,15.6
 2005/03/01,17:30,17.5,45,14.9,9
 2005/03/01,17:45,17.3,44,14.8,8.6
 2005/03/01,18:00,17,44,14.7,8.8
 2005/03/01,18:15,17.3,59,14.6,9
 2005/03/01,18:30,17.6,48,14.6,9.2
 2005/03/01,18:45,17.6,49,14.6,9.4
 2005/03/01,19:00,17.4,47,14.6,9
 2005/03/01,19:15,17.3,46,14.5,8.8
 2005/03/01,19:30,17,47,14.4,8.9
 2005/03/01,19:45,17,47,14.3,8.8
 2005/03/01,20:00,16.8,48,14.3,8.9
 2005/03/01,20:15,16.6,49,14.2,9
 2005/03/01,20:30,16.7,48,14.2,9.1
 2005/03/01,20:45,16.5,47,14,9.2
 2005/03/01,21:00,16.5,47,14,9.3
 2005/03/01,21:15,16.5,51,14,9.3
 2005/03/01,21:30,16.5,51,13.8,9.3
 2005/03/01,21:45,16.3,50,13.8,8.8
 2005/03/01,22:00,16.4,51,13.7,8.8
 2005/03/01,22:15,16.3,51,13.6,8.7
 2005/03/01,22:30,16.3,51,13.5,8.7
 2005/03/01,22:45,16.5,50,13.4,8.7
 2005/03/01,23:00,16.5,52,13.4,8.8
 2005/03/01,23:15,16.3,52,13.4,8.9
 2005/03/01,23:30,16.2,54,13.3,8.8
 2005/03/01,23:45,16.1,54,13.3,8.7
 2005/03/02, 0:00,16,55,13.3,8.9
 2005/03/02, 0:15,15.7,56,15.9,9
 2005/03/02, 0:30,15.6,56,18.6,9
 2005/03/02, 0:45,15.6,57,16.3,9.1
 2005/03/02, 1:00,15.5,57,15.6,9.2
 2005/03/02, 1:15,15.2,58,15.1,9.1
 2005/03/02, 1:30,15.1,58,14.7,9.2
 2005/03/02, 1:45,14.9,59,14.3,9.3
 2005/03/02, 2:00,14.8,59,14.1,9.3
 2005/03/02, 2:15,14.6,59,13.8,9.4
 2005/03/02, 2:30,14.5,59,13.6,9.5
 2005/03/02, 2:45,14.4,59,13.3,8.8
 2005/03/02, 3:00,14.3,59,13.1,8.8
 2005/03/02, 3:15,14.2,59,12.9,8.9
 2005/03/02, 3:30,14.2,59,12.7,9
 2005/03/02, 3:45,14.1,59,12.5,9
 2005/03/02, 4:00,13.9,59,12.4,9.1
 2005/03/02, 4:15,13.9,59,12.2,9.1
 2005/03/02, 4:30,13.8,59,12.1,9.3
 2005/03/02, 4:45,13.8,59,11.9,9.3
 2005/03/02, 5:00,13.6,59,11.8,9.3
 2005/03/02, 5:15,13.6,59,11.6,9.3
 2005/03/02, 5:30,13.5,58,11.6,9.4
 2005/03/02, 5:45,13.4,59,11.5,9.5
 2005/03/02, 6:00,13.3,58,11.4,9.4
 2005/03/02, 6:15,13.3,58,11.2,9.5
 2005/03/02, 6:30,13.2,59,11.1,8.5
 2005/03/02, 6:45,13.2,58,11.1,8.6
 2005/03/02, 7:00,13.2,57,11,8.7
 2005/03/02, 7:15,13.4,59,10.9,8.8
 2005/03/02, 7:30,13.6,62,10.8,8.5
 2005/03/02, 7:45,13.9,58,10.7,8.8
 2005/03/02, 8:00,13.8,58,10.6,9.2
 2005/03/02, 8:15,13.8,58,11,9.3
 2005/03/02, 8:30,13.9,55,10.9,8.7
 2005/03/02, 8:45,13.9,50,11,8.8
 2005/03/02, 9:00,13.9,55,11,8.8
 2005/03/02, 9:15,13.9,55,11,8.9
 2005/03/02, 9:30,14.3,52,11,9
 2005/03/02, 9:45,14.3,53,11.1,9
 2005/03/02,10:00,14.7,49,11.2,9.1
 2005/03/02,10:15,14.4,51,11.3,8.6
 2005/03/02,10:30,14.2,50,11.2,8.7
 2005/03/02,10:45,14.1,50,11.3,8.8
 2005/03/02,11:00,14,51,11.5,8.8
 2005/03/02,11:15,14,50,11.4,8.9
 2005/03/02,11:30,14.1,51,11.4,8.4
 2005/03/02,11:45,14.3,52,11.5,8.7
 2005/03/02,12:00,14.2,49,11.7,8.8
 2005/03/02,12:15,14.4,51,11.7,8.7
 2005/03/02,12:30,15,50,11.8,8.8
 2005/03/02,12:45,15,51,11.9,8.8
 2005/03/02,13:00,14.9,51,12,8.9
 2005/03/02,13:15,15,50,12.1,9
 2005/03/02,13:30,15,48,12.3,9
 2005/03/02,13:45,15,47,12.2,9.1
 2005/03/02,14:00,15,47,12.3,9
 2005/03/02,14:15,14.9,47,12.4,9.2
 2005/03/02,14:30,14.9,46,12.4,8.6
 2005/03/02,14:45,14.8,47,12.4,8.7
 2005/03/02,15:00,14.8,46,12.4,8.8
 2005/03/02,15:15,14.8,47,12.4,8.9
 2005/03/02,15:30,14.8,46,12.5,9
 2005/03/02,15:45,14.8,48,12.5,9
 2005/03/02,16:00,14.6,48,12.5,9.1
 2005/03/02,16:15,14.6,48,12.5,8.5
 2005/03/02,16:30,14.7,49,12.6,8.5
 2005/03/02,16:45,15,49,12.6,8.5
 2005/03/02,17:00,15.5,47,12.6,8.6
 2005/03/02,17:15,16.5,51,12.5,8.8
 2005/03/02,17:30,16.6,47,12.6,8.8
 2005/03/02,17:45,16,47,12.6,8.6
 2005/03/02,18:00,15.9,47,12.5,8.7
 2005/03/02,18:15,16.9,65,12.6,8.7
 2005/03/02,18:30,17.5,50,13.1,8.8
 2005/03/02,18:45,18.1,49,13.4,8.9
 2005/03/02,19:00,18.4,48,13.8,9.1
 2005/03/02,19:15,18.8,46,14.2,9.1
 2005/03/02,19:30,19.2,45,14.6,9.1
 2005/03/02,19:45,19.6,44,14.5,9.2
 2005/03/02,20:00,19.9,45,13.9,9.3
 2005/03/02,20:15,20.1,44,13.6,9.3
 2005/03/02,20:30,20.2,43,13.4,9.4
 2005/03/02,20:45,20.3,42,13.3,9.5
 2005/03/02,21:00,20.5,42,13.2,9.5
 2005/03/02,21:15,20.6,45,13.6,9
 2005/03/02,21:30,20.6,42,14.8,9.2
 2005/03/02,21:45,20.7,41,15.3,8.8
 2005/03/02,22:00,20.8,45,15.6,9
 2005/03/02,22:15,20.8,44,15.9,9
 2005/03/02,22:30,21,44,16.2,8.8
 2005/03/02,22:45,21.3,47,16.3,8.8
 2005/03/02,23:00,21.6,46,16.6,9
 2005/03/02,23:15,21.6,46,16.8,8.6
 2005/03/02,23:30,20,47,16.4,8.8
 2005/03/02,23:45,19.4,49,16,8.9
 2005/03/03, 0:00,19,51,15.7,8.9
 2005/03/03, 0:15,18.6,50,15.5,9
 2005/03/03, 0:30,18.4,51,15.2,9.1
 2005/03/03, 0:45,18.1,53,15.1,9.1
 2005/03/03, 1:00,17.8,55,15,9.2
 2005/03/03, 1:15,17.5,56,14.9,9.2
 2005/03/03, 1:30,17.4,56,14.7,8.7
 2005/03/03, 1:45,17.2,57,14.6,8.8
 2005/03/03, 2:00,17,57,14.6,8.8
 2005/03/03, 2:15,16.9,57,14.5,8.8
 2005/03/03, 2:30,16.8,57,14.3,8.8
 2005/03/03, 2:45,16.6,57,14.3,8.9
 2005/03/03, 3:00,16.4,57,14.1,9
 2005/03/03, 3:15,16.4,56,14.1,9
 2005/03/03, 3:30,16.3,56,14,9.1
 2005/03/03, 3:45,16.2,56,13.9,9.3
 2005/03/03, 4:00,16,56,13.8,9.3
 2005/03/03, 4:15,16,56,13.8,9.3
 2005/03/03, 4:30,15.9,56,13.6,9.4
 2005/03/03, 4:45,15.7,56,13.7,9.5
 2005/03/03, 5:00,15.6,56,13.5,9.5
 2005/03/03, 5:15,15.6,55,13.4,9.4
 2005/03/03, 5:30,15.5,56,13.5,9.5
 2005/03/03, 5:45,15.3,56,13.3,9.5
 2005/03/03, 6:00,15.3,55,13.3,9.7
 2005/03/03, 6:15,15.3,55,13.3,9.8
 2005/03/03, 6:30,15.2,55,13.2,9.8
 2005/03/03, 6:45,15,55,13.2,9.9
 2005/03/03, 7:00,15,55,13.3,10
 2005/03/03, 7:15,15.3,56,13.3,9.3
 2005/03/03, 7:30,15.6,58,13.2,9.3
 2005/03/03, 7:45,16.2,53,13.2,9.4
 2005/03/03, 8:00,16.3,52,13.2,8.9
 2005/03/03, 8:15,16.3,52,13.1,8.8
 2005/03/03, 8:30,16.2,52,13.1,9
 2005/03/03, 8:45,16.3,49,13.1,9
 2005/03/03, 9:00,16.2,52,13.1,9
 2005/03/03, 9:15,16.2,52,13.2,8.8
 2005/03/03, 9:30,16.1,51,13.2,8.9
 2005/03/03, 9:45,16.3,50,13.2,9.1
 2005/03/03,10:00,16.5,52,13.3,9.1
 2005/03/03,10:15,16.5,50,13.3,8.7
 2005/03/03,10:30,16.5,49,13.3,8.8
 2005/03/03,10:45,16.6,48,13.3,8.8
 2005/03/03,11:00,16.3,49,13.4,8.9
 2005/03/03,11:15,16.2,49,13.4,9
 2005/03/03,11:30,16.3,49,13.4,8.9
 2005/03/03,11:45,16.3,49,13.5,9
 2005/03/03,12:00,16.2,49,13.5,9.1
 2005/03/03,12:15,16.7,57,13.7,8.5
 2005/03/03,12:30,16.6,51,13.7,8.7
 2005/03/03,12:45,16.8,54,13.9,8.8
 2005/03/03,13:00,16.9,52,13.9,8.9
 2005/03/03,13:15,16.8,52,14,9
 2005/03/03,13:30,16.8,51,14,9.2
 2005/03/03,13:45,16.6,50,14,9.2
 2005/03/03,14:00,16.6,50,14.1,9.3
 2005/03/03,14:15,16.6,49,14.2,8.8
 2005/03/03,14:30,16.4,49,14.1,9
 2005/03/03,14:45,16.6,49,14.2,9
 2005/03/03,15:00,17.1,56,14.3,8.7
 2005/03/03,15:15,17.4,51,14.3,8.8
 2005/03/03,15:30,17.4,52,14.3,8.8
 2005/03/03,15:45,17,49,14.3,9
 2005/03/03,16:00,16.8,50,14.4,8.6
 2005/03/03,16:15,16.7,50,14.3,8.8
 2005/03/03,16:30,16.6,49,14.2,8.9
 2005/03/03,16:45,16.6,52,14.3,8.6
 2005/03/03,17:00,16.7,53,14.3,8.7
 2005/03/03,17:15,16.6,51,14.2,8.8
 2005/03/03,17:30,16.6,51,14.1,8.6
 2005/03/03,17:45,17.3,52,14.2,8.7
 2005/03/03,18:00,17,52,14.2,8.9
 2005/03/03,18:15,17,52,14.3,8.9
 2005/03/03,18:30,17.1,53,14.2,9
 2005/03/03,18:45,17,52,14.3,9.4
 2005/03/03,19:00,17,52,14.3,9.3
 2005/03/03,19:15,17,51,14.4,9.3
 2005/03/03,19:30,17,52,14.4,9.2
 2005/03/03,19:45,17,52,14.4,9.3
 2005/03/03,20:00,17.2,54,14.5,9.3
 2005/03/03,20:15,17,52,14.5,9.5
 2005/03/03,20:30,17.1,51,14.4,9.5
 2005/03/03,20:45,16.9,53,14.4,9.5
 2005/03/03,21:00,17,56,14.3,9.4
 2005/03/03,21:15,17,54,14.3,9.2
 2005/03/03,21:30,17.2,59,14.4,9.3
 2005/03/03,21:45,17.1,57,14.3,9
 2005/03/03,22:00,17.1,58,14.5,9.2
 2005/03/03,22:15,17,58,14.4,9.2
 2005/03/03,22:30,16.8,58,14.4,9.3
 2005/03/03,22:45,16.8,58,14.4,9.5
 2005/03/03,23:00,16.8,61,14.5,9.5
 2005/03/03,23:15,16.6,60,14.4,9.6
 2005/03/03,23:30,16.6,59,14.4,9.8
 2005/03/03,23:45,16.5,59,14.5,9.8
 2005/03/04, 0:00,16.5,59,14.3,9.9
 2005/03/04, 0:15,16.4,59,14.3,10.1
 2005/03/04, 0:30,16.4,60,14.3,10.1
 2005/03/04, 0:45,16.3,61,14.3,10.2
 2005/03/04, 1:00,16.2,62,14.3,10.3
 2005/03/04, 1:15,16.1,63,14.3,10.4
 2005/03/04, 1:30,16,64,14.1,10.4
 2005/03/04, 1:45,16,63,14.1,10.5
 2005/03/04, 2:00,15.9,63,14,10.6
 2005/03/04, 2:15,15.8,63,13.9,10.6
 2005/03/04, 2:30,15.7,63,13.9,10.7
 2005/03/04, 2:45,15.6,64,13.6,10.8
 2005/03/04, 3:00,15.5,64,13.7,10.8
 2005/03/04, 3:15,15.5,63,13.5,10.9
 2005/03/04, 3:30,15.4,63,13.4,11
 2005/03/04, 3:45,15.3,63,13.3,11
 2005/03/04, 4:00,15.2,63,13.3,11.1
 2005/03/04, 4:15,15.1,63,13.2,11.2
 2005/03/04, 4:30,15.2,62,13.2,11.2
 2005/03/04, 4:45,15.2,62,13.1,11.3
 2005/03/04, 5:00,15.2,61,12.9,11.4
 2005/03/04, 5:15,15.2,61,12.9,11.4
 2005/03/04, 5:30,15.1,60,12.9,11.4
 2005/03/04, 5:45,15,60,12.7,11.4
 2005/03/04, 6:00,15,60,12.7,11.6
 2005/03/04, 6:15,14.9,60,12.6,11.6
 2005/03/04, 6:30,14.8,60,12.5,11.6
 2005/03/04, 6:45,14.8,60,12.5,9.8
 2005/03/04, 7:00,14.8,60,12.6,9.8
 2005/03/04, 7:15,15.2,58,12.6,10
 2005/03/04, 7:30,15.4,59,12.6,10.1
 2005/03/04, 7:45,15.7,61,12.6,9.8
 2005/03/04, 8:00,15.7,61,12.7,9.6
 2005/03/04, 8:15,15.6,61,12.8,9.7
 2005/03/04, 8:30,15.5,61,12.8,9.8
 2005/03/04, 8:45,15.6,62,12.8,9.9
 2005/03/04, 9:00,15.2,54,12.8,9.9
 2005/03/04, 9:15,15,52,12.8,10
 2005/03/04, 9:30,15,53,12.7,9.4
 2005/03/04, 9:45,15,54,12.8,9.4
 2005/03/04,10:00,15.6,53,12.8,9.5
 2005/03/04,10:15,15.8,54,12.9,9.6
 2005/03/04,10:30,16,55,13,9.6
 2005/03/04,10:45,16.1,55,13,9.8
 2005/03/04,11:00,15.8,53,12.9,9.8
 2005/03/04,11:15,15.5,53,13,10
 2005/03/04,11:30,15.5,54,12.9,10
 2005/03/04,11:45,15.5,54,12.9,9.3
 2005/03/04,12:00,15.6,55,13,9.5
 2005/03/04,12:15,16,54,13,9.5
 2005/03/04,12:30,15.8,53,13,9.6
 2005/03/04,12:45,15.5,54,12.9,9.3
 2005/03/04,13:00,15.4,53,12.9,9.4
 2005/03/04,13:15,15.3,54,12.9,9.6
 2005/03/04,13:30,15.6,54,13.2,9.3
 2005/03/04,13:45,15.8,53,13.3,9.4
 2005/03/04,14:00,15.8,52,13.5,9.5
 2005/03/04,14:15,15.7,53,13.4,9.1
 2005/03/04,14:30,15.6,53,13.3,9.3
 2005/03/04,14:45,15.5,53,13.3,9.4
 2005/03/04,15:00,15.5,53,13.3,9.6
 2005/03/04,15:15,15.4,53,13.3,9.5
 2005/03/04,15:30,15.4,59,13.3,9.7
 2005/03/04,15:45,15.4,54,13.6,9.3
 2005/03/04,16:00,15.6,53,13.9,9.3
 2005/03/04,16:15,15.7,53,14,9.6
 2005/03/04,16:30,15.5,55,14,9.5
 2005/03/04,16:45,15.5,55,13.9,9.7
 2005/03/04,17:00,15.6,53,13.9,9.5
 2005/03/04,17:15,17.1,71,14.2,9.3
 2005/03/04,17:30,17.9,53,14.5,9.5
 2005/03/04,17:45,18.1,56,14.6,9.5
 2005/03/04,18:00,18.5,57,14.8,9.7
 2005/03/04,18:15,18.9,54,14.9,9.7
 2005/03/04,18:30,19.6,54,15.2,9.6
 2005/03/04,18:45,20.1,52,15.5,9.6
 2005/03/04,19:00,20.2,51,16,9.8
 2005/03/04,19:15,20.4,49,16.2,9.5
 2005/03/04,19:30,20.5,48,16.4,9.6
 2005/03/04,19:45,20.6,46,16.7,9.5
 2005/03/04,20:00,20.8,45,16.7,9.5
 2005/03/04,20:15,20.8,45,16.7,9.7
 2005/03/04,20:30,20.9,44,16.8,9.7
 2005/03/04,20:45,21.2,43,16.9,9.8
 2005/03/04,21:00,21.3,41,17,9.9
 2005/03/04,21:15,21.2,40,16.8,9.7
 2005/03/04,21:30,21.2,41,16.9,9.4
 2005/03/04,21:45,21.2,42,17,9.6
 2005/03/04,22:00,21.2,40,17.1,9.7
 2005/03/04,22:15,21.3,44,17.3,9.6
 2005/03/04,22:30,21.2,44,17.4,9.5
 2005/03/04,22:45,21.3,42,17.6,9.7
 2005/03/04,23:00,21.3,41,17.7,9.8
 2005/03/04,23:15,21.8,38,17.7,9.8
 2005/03/04,23:30,22.4,38,17.5,9.4
 2005/03/04,23:45,20.6,42,17.4,9.5
 2005/03/05, 0:00,21.8,41,17.4,9.6
 2005/03/05, 0:15,20.5,45,17.1,9.4
 2005/03/05, 0:30,19.5,49,16.8,9.5
 2005/03/05, 0:45,19.2,50,16.7,9.4
 2005/03/05, 1:00,18.9,53,16.6,9.6
 2005/03/05, 1:15,18.5,53,16.2,9.5
 2005/03/05, 1:30,18.4,54,15.9,9.7
 2005/03/05, 1:45,18.1,55,15.7,9.8
 2005/03/05, 2:00,17.9,56,15.6,9.8
 2005/03/05, 2:15,17.6,56,15.2,10
 2005/03/05, 2:30,17.5,56,15.1,10.1
 2005/03/05, 2:45,17.3,56,14.9,10.1
 2005/03/05, 3:00,17.1,56,14.8,10.2
 2005/03/05, 3:15,16.9,55,14.8,10.2
 2005/03/05, 3:30,16.8,55,14.5,10.3
 2005/03/05, 3:45,16.6,55,14.5,10.4
 2005/03/05, 4:00,16.5,55,14.4,10.5
 2005/03/05, 4:15,16.3,54,14.1,10.4
 2005/03/05, 4:30,16.2,55,14.1,10.5
 2005/03/05, 4:45,16,55,14,10.5
 2005/03/05, 5:00,15.9,55,13.9,10.6
 2005/03/05, 5:15,15.8,56,13.7,10.7
 2005/03/05, 5:30,15.6,55,13.7,10.7
 2005/03/05, 5:45,15.6,55,13.5,10.8
 2005/03/05, 6:00,15.5,55,13.4,10.9
 2005/03/05, 6:15,15.3,55,13.5,10.8
 2005/03/05, 6:30,15.2,55,13.4,10.8
 2005/03/05, 6:45,15.7,56,13.5,9.5
 2005/03/05, 7:00,15.6,55,13.5,9.7
 2005/03/05, 7:15,15.4,54,13.4,9.5
 2005/03/05, 7:30,15.2,55,13.3,9.6
 2005/03/05, 7:45,15.7,55,13.2,9.5
 2005/03/05, 8:00,15.6,54,13.2,9.7
 2005/03/05, 8:15,15.6,55,13.3,9.7
 2005/03/05, 8:30,15.4,56,13.3,9.8
 2005/03/05, 8:45,15.2,56,13.2,9.8
 2005/03/05, 9:00,16.6,53,13.3,9.9
 2005/03/05, 9:15,16.9,50,13.3,9.2
 2005/03/05, 9:30,17.2,50,13.4,9
 2005/03/05, 9:45,18,49,13.7,9.2
 2005/03/05,10:00,18.5,48,14.1,9.3
 2005/03/05,10:15,19,47,14.3,9.1
 2005/03/05,10:30,19.4,50,14.6,9.1
 2005/03/05,10:45,19.8,47,14.9,9.2
 2005/03/05,11:00,20,46,15.3,9.3
 2005/03/05,11:15,20.4,45,15.4,9.4
 2005/03/05,11:30,20.8,44,15.7,9.5
 2005/03/05,11:45,21.2,43,15.9,9.6
 2005/03/05,12:00,21.5,42,16.1,9.5
 2005/03/05,12:15,21.9,43,16.5,9.6
 2005/03/05,12:30,21.5,43,16.6,9.6
 2005/03/05,12:45,20.4,46,16.4,9.3
 2005/03/05,13:00,20.2,47,16.3,9.3
 2005/03/05,13:15,19.8,48,16.3,9.3
 2005/03/05,13:30,19.7,48,16.3,8.9
 2005/03/05,13:45,20.2,42,16.4,9.1
 2005/03/05,14:00,20.2,40,16.6,9
 2005/03/05,14:15,20,38,16.7,9.2
 2005/03/05,14:30,19.3,42,16.6,9.3
 2005/03/05,14:45,19,42,16.6,9.4
 2005/03/05,15:00,18.8,42,16.6,9.4
 2005/03/05,15:15,18.6,40,16.5,9.5
 2005/03/05,15:30,18.6,42,16.5,9.6
 2005/03/05,15:45,18.5,45,16.7,9.8
 2005/03/05,16:00,18.5,41,16.8,9.8
 2005/03/05,16:15,18.6,41,17.1,9
 2005/03/05,16:30,18.5,40,17.2,9.2
 2005/03/05,16:45,18.3,40,17.3,9.3
 2005/03/05,17:00,18.4,41,17.4,9
 2005/03/05,17:15,19,44,17.3,9.1
 2005/03/05,17:30,19.3,38,17.3,9
 2005/03/05,17:45,19.9,39,17.2,9
 2005/03/05,18:00,20.1,39,17.1,9.1
 2005/03/05,18:15,19.7,44,17,9.1
 2005/03/05,18:30,19.6,47,16.9,9.1
 2005/03/05,18:45,19.5,46,16.8,9.2
 2005/03/05,19:00,19.4,46,16.7,9.3
 2005/03/05,19:15,19.2,46,16.6,9.5
 2005/03/05,19:30,19.1,46,16.5,9.5
 2005/03/05,19:45,19.3,46,16.4,9.4
 2005/03/05,20:00,19.3,47,16.3,9.6
 2005/03/05,20:15,19.1,47,16.3,9.5
 2005/03/05,20:30,19.1,47,16.2,9.4
 2005/03/05,20:45,18.9,46,16.2,9.5
 2005/03/05,21:00,18.8,46,16.2,9.6
 2005/03/05,21:15,18.8,49,16.3,9.7
 2005/03/05,21:30,18.6,48,16.2,9.3
 2005/03/05,21:45,18.4,49,16.3,9.4
 2005/03/05,22:00,18.1,50,16.2,9.5
 2005/03/05,22:15,18.1,51,16.1,9.7
 2005/03/05,22:30,17.9,51,15.9,9.5
 2005/03/05,22:45,17.7,51,15.8,9.5
 2005/03/05,23:00,17.7,51,15.7,9.3
 2005/03/05,23:15,17.9,53,15.7,9.6
 2005/03/05,23:30,17.8,52,15.5,9.5
 2005/03/05,23:45,17.7,51,15.3,9.3
 2005/03/06, 0:00,17.5,52,15.2,9.4
 2005/03/06, 0:15,17.1,54,15.1,9.5
 2005/03/06, 0:30,17,56,15.1,9.5
 2005/03/06, 0:45,16.8,58,15,9.6
 2005/03/06, 1:00,16.6,59,14.9,9.7
 2005/03/06, 1:15,16.6,59,14.7,9.8
 2005/03/06, 1:30,16.6,58,14.7,9.8
 2005/03/06, 1:45,16.3,60,14.6,9.3
 2005/03/06, 2:00,16.2,60,14.6,9.3
 2005/03/06, 2:15,16.1,60,14.6,9.4
 2005/03/06, 2:30,15.9,60,14.4,9.5
 2005/03/06, 2:45,15.8,60,14.2,9.6
 2005/03/06, 3:00,15.6,60,14,9.7
 2005/03/06, 3:15,15.5,60,13.9,9.8
 2005/03/06, 3:30,15.4,60,13.8,9.8
 2005/03/06, 3:45,15.2,60,13.5,9.9
 2005/03/06, 4:00,15.1,60,13.5,10
 2005/03/06, 4:15,15.1,60,13.3,10.1
 2005/03/06, 4:30,14.9,60,13.2,10
 2005/03/06, 4:45,14.8,60,13.1,8.9
 2005/03/06, 5:00,14.7,60,12.9,9.1
 2005/03/06, 5:15,14.6,60,12.8,9.1
 2005/03/06, 5:30,14.5,60,12.8,9.2
 2005/03/06, 5:45,14.4,59,12.6,9.3
 2005/03/06, 6:00,14.3,59,12.6,9.3
 2005/03/06, 6:15,14.2,60,12.5,9.3
 2005/03/06, 6:30,14.1,59,12.4,9.4
 2005/03/06, 6:45,14.1,59,12.3,9.5
 2005/03/06, 7:00,14,59,12.2,9.5
 2005/03/06, 7:15,14,59,12.1,9.5
 2005/03/06, 7:30,13.8,59,12,8.7
 2005/03/06, 7:45,13.8,59,11.9,8.8
 2005/03/06, 8:00,13.6,59,11.9,8.8
 2005/03/06, 8:15,13.6,59,11.8,8.9
 2005/03/06, 8:30,13.6,59,11.7,8.9
 2005/03/06, 8:45,13.5,59,11.7,9.1
 2005/03/06, 9:00,13.5,59,11.7,9
 2005/03/06, 9:15,13.4,59,11.7,9.1
 2005/03/06, 9:30,13.3,59,11.7,9.2
 2005/03/06, 9:45,13.4,59,11.7,8.5
 2005/03/06,10:00,13.3,59,11.8,8.4
 2005/03/06,10:15,13.9,62,12,8.8
 2005/03/06,10:30,14.7,56,11.9,8.8
 2005/03/06,10:45,15.3,57,12,8.8
 2005/03/06,11:00,15.4,53,12.1,8.9
 2005/03/06,11:15,15.5,52,12.3,9
 2005/03/06,11:30,15.6,52,12.5,9.1
 2005/03/06,11:45,15.7,51,12.5,9
 2005/03/06,12:00,15.7,51,12.9,9.1
 2005/03/06,12:15,15.7,51,12.9,9.2
 2005/03/06,12:30,15.7,53,13.1,9.3
 2005/03/06,12:45,16.4,73,13.3,9.3
 2005/03/06,13:00,16.4,55,13.3,9.3
 2005/03/06,13:15,16.6,54,13.6,9.3
 2005/03/06,13:30,16.8,53,13.7,9.4
 2005/03/06,13:45,16.7,52,13.8,9.5
 2005/03/06,14:00,16.7,51,14.1,9.5
 2005/03/06,14:15,16.7,49,14.2,9.6
 2005/03/06,14:30,16.5,50,14.3,8.7
 2005/03/06,14:45,16.4,50,14.3,8.8
 2005/03/06,15:00,16.5,49,14.3,8.9
 2005/03/06,15:15,16.4,47,14.6,9
 2005/03/06,15:30,16.6,47,14.9,8.7
 2005/03/06,15:45,16.7,47,15.2,8.8
 2005/03/06,16:00,16.8,46,15.3,8.7
 2005/03/06,16:15,16.6,46,15.3,8.9
 2005/03/06,16:30,16.8,47,15.4,9
 2005/03/06,16:45,17.2,53,15.5,9.1
 2005/03/06,17:00,17.5,47,16.9,9.1
 2005/03/06,17:15,17.7,45,16.5,9.3
 2005/03/06,17:30,17.9,53,16,9.2
 2005/03/06,17:45,18.5,49,15.9,9.4
 2005/03/06,18:00,19.1,48,16.1,9.4
 2005/03/06,18:15,19.3,48,16,9.5
 2005/03/06,18:30,19.6,51,15.5,9.4
 2005/03/06,18:45,20,47,15.4,9.4
 2005/03/06,19:00,19.3,50,15.1,9.5
 2005/03/06,19:15,19.7,46,15.1,9.7
 2005/03/06,19:30,19.6,46,14.9,9.3
 2005/03/06,19:45,18.9,47,14.8,9.1
 2005/03/06,20:00,19.3,44,14.6,9.4
 2005/03/06,20:15,18.5,46,14.6,9.5
 2005/03/06,20:30,18.4,46,14.4,9.6
 2005/03/06,20:45,18.1,48,15,9.3
 2005/03/06,21:00,17.9,49,14.9,9.4
 2005/03/06,21:15,17.7,49,14.9,9.5
 2005/03/06,21:30,17.5,48,15.2,9.4
 2005/03/06,21:45,17.3,48,15.3,9.5
 2005/03/06,22:00,17.4,52,15.5,9.5
 2005/03/06,22:15,17.2,51,15.4,9.7
 2005/03/06,22:30,17.1,50,15.5,9.8
 2005/03/06,22:45,17,50,15.6,9.8
 2005/03/06,23:00,17.1,52,15.6,9.9
 2005/03/06,23:15,17.1,51,15.6,10
 2005/03/06,23:30,17,53,15.7,10.1
 2005/03/06,23:45,17,53,15.3,10.1
 2005/03/07, 0:00,16.9,53,15,9.2
 2005/03/07, 0:15,16.8,54,14.9,9.3
 2005/03/07, 0:30,16.5,56,14.8,9.3
 2005/03/07, 0:45,16.4,57,14.6,9.1
 2005/03/07, 1:00,16.2,56,14.6,9.1
 2005/03/07, 1:15,16,57,14.6,9.3
 2005/03/07, 1:30,15.9,56,14.3,9.3
 2005/03/07, 1:45,15.6,56,14.3,9.4
 2005/03/07, 2:00,15.5,56,14.2,9.5
 2005/03/07, 2:15,15.3,56,14,9.5
 2005/03/07, 2:30,15.2,56,13.8,9.6
 2005/03/07, 2:45,15.1,56,13.6,9.6
 2005/03/07, 3:00,15,56,13.4,9.6
 2005/03/07, 3:15,14.8,56,13.3,9.7
 2005/03/07, 3:30,14.6,56,13,9.8
 2005/03/07, 3:45,14.5,56,12.9,9.9
 2005/03/07, 4:00,14.3,56,12.7,9.9
 2005/03/07, 4:15,14.3,56,12.6,9.9
 2005/03/07, 4:30,14.1,56,12.4,10.1
 2005/03/07, 4:45,14,57,12.3,7.9
 2005/03/07, 5:00,13.9,56,12.2,8.9
 2005/03/07, 5:15,13.8,56,12,9
 2005/03/07, 5:30,13.7,56,11.9,9
 2005/03/07, 5:45,13.6,56,11.9,9.1
 2005/03/07, 6:00,13.5,56,11.6,9.2
 2005/03/07, 6:15,13.3,56,11.5,9.2
 2005/03/07, 6:30,13.1,57,11.4,9.3
 2005/03/07, 6:45,13.2,57,11.6,9.4
 2005/03/07, 7:00,13.9,54,11.5,9
 2005/03/07, 7:15,13.8,52,11.1,9.5
 2005/03/07, 7:30,14.1,52,11,9.1
 2005/03/07, 7:45,14.2,49,10.7,9.2
 2005/03/07, 8:00,13.7,51,11.2,9.2
 2005/03/07, 8:15,13.7,51,11.4,9.3
 2005/03/07, 8:30,13.7,54,11.4,9.3
 2005/03/07, 8:45,13.9,53,11.4,9.3
 2005/03/07, 9:00,13.8,54,11.5,9.5
 2005/03/07, 9:15,13.7,55,11.4,9.5
 2005/03/07, 9:30,13.7,52,11.4,9.5
 2005/03/07, 9:45,13.7,54,11.4,8.8
 2005/03/07,10:00,13.9,54,11.4,8.9
 2005/03/07,10:15,14.5,51,11.5,8.5
 2005/03/07,10:30,14.5,50,11.7,8.7
 2005/03/07,10:45,14.2,51,11.6,8.8
 2005/03/07,11:00,14.2,51,11.6,8.8
 2005/03/07,11:15,14.2,51,11.7,8.9
 2005/03/07,11:30,14.1,51,11.6,8.9
 2005/03/07,11:45,14.2,50,11.7,8.9
 2005/03/07,12:00,14.6,51,11.9,9
 2005/03/07,12:15,14.6,51,11.9,9
 2005/03/07,12:30,15.1,50,12.1,8.8
 2005/03/07,12:45,15.3,49,12.2,8.5
 2005/03/07,13:00,15.1,49,12.4,8.7
 2005/03/07,13:15,15.3,49,12.5,8.8
 2005/03/07,13:30,15.3,48,12.8,8.8
 2005/03/07,13:45,15.4,48,13,8.8
 2005/03/07,14:00,15.7,48,13.1,8.8
 2005/03/07,14:15,15.5,48,13.4,8.9
 2005/03/07,14:30,15.6,47,13.6,8.3
 2005/03/07,14:45,15.6,47,13.8,8.4
 2005/03/07,15:00,15.5,46,14.1,8.5
 2005/03/07,15:15,15.6,47,14.4,8.5
 2005/03/07,15:30,15.8,46,14.8,8.6
 2005/03/07,15:45,15.8,46,14.9,8.6
 2005/03/07,16:00,15.9,46,15.3,8.7
 2005/03/07,16:15,16.2,51,15.6,8.3
 2005/03/07,16:30,16.3,50,15.9,8.5
 2005/03/07,16:45,16.1,48,16,8.5
 2005/03/07,17:00,16.5,48,16.2,8.8
 2005/03/07,17:15,16.6,46,15.9,8.9
 2005/03/07,17:30,17.3,46,15.9,9.1
 2005/03/07,17:45,17.1,47,16.1,9
 2005/03/07,18:00,17.3,44,15.9,8.7
 2005/03/07,18:15,17.6,46,15.7,8.8
 2005/03/07,18:30,17.7,47,15.7,8.9
 2005/03/07,18:45,17.9,51,15.6,9.5
 2005/03/07,19:00,18,49,15.6,9.6
 2005/03/07,19:15,18,49,15.7,9.8
 2005/03/07,19:30,17.9,50,15.7,9.8
 2005/03/07,19:45,17.7,49,15.6,9.9
 2005/03/07,20:00,17.6,50,15.7,10
 2005/03/07,20:15,17.2,51,15.6,10
 2005/03/07,20:30,17,51,15.6,10
 2005/03/07,20:45,17,50,15.5,10.1
 2005/03/07,21:00,17.2,51,15.4,9.2
 2005/03/07,21:15,17.1,52,15.5,9.1
 2005/03/07,21:30,16.7,52,15.3,9.2
 2005/03/07,21:45,16.7,52,15.3,9.3
 2005/03/07,22:00,17,52,15.1,9.3
 2005/03/07,22:15,17.3,54,15.1,9.5
 2005/03/07,22:30,17.1,56,15.1,9.1
 2005/03/07,22:45,17,59,15,9
 2005/03/07,23:00,16.8,59,15,9
 2005/03/07,23:15,16.7,60,14.9,9.2
 2005/03/07,23:30,16.5,60,14.9,9.3
 2005/03/07,23:45,16.3,59,15,9.3